New Richmond, WI

2:37 AM CDT on July 22, 2017 (GMT -0500)
New Richmond Municipal

Weather History for KRNH - March, 2013

Change the Weather History Date:

Sunday, March 3, 2013

  Actual Average (KSTP) Record (KSTP)
Temperature  
Mean Temperature 15 °F -  
Max Temperature 30 °F 28 °F 42 °F (2001)
Min Temperature 0 °F 15 °F -9 °F (2014)
Degree Days  
Heating Degree Days 50    
Moisture  
Dew Point 3 °F    
Average Humidity 58    
Maximum Humidity 92    
Minimum Humidity 27    
Precipitation  
Precipitation 0.00 in - - ()
Sea Level Pressure  
Sea Level Pressure 30.08 in    
Wind  
Wind Speed 3 mph (ESE)    
Max Wind Speed 9 mph    
Max Gust Speed -    
Visibility 10 miles    
Events      
Averages and records for this station are not official NWS values.
T = Trace of Precipitation, MM = Missing Value Source: NWS Daily Summary

Daily Weather History Graph

Daily Weather History Graph

Search for Another Location

Airport or City:

Trip Planner

Search our weather history database for the weather conditions in past years. The results will help you decide how hot, cold, wet, or windy it might be!

Date:

Astronomy

Mar. 03, 2013 Rise Set
Actual Time 6:44 AM CST 6:00 PM CST
Civil Twilight 6:14 AM CST 6:30 PM CST
Nautical Twilight 5:40 AM CST 7:04 PM CST
Astronomical Twilight 5:06 AM CST 7:38 PM CST
Moon No Moon Rise 9:41 AM CST (3/3)
Length of Visible Light 12h 15m
Length of Day
11h 16m
Waning Gibbous, 63% of the Moon is Illuminated
Mar 3
Waning Gibbous
Mar 4
Last Quarter
Mar 11
New
Mar 19
First Quarter
Mar 27
Full

Hourly Weather History & Observations

Time (CST) Temp. Windchill Dew Point Humidity Pressure Visibility Wind Dir Wind Speed Gust Speed Precip Events Conditions
12:15 AM 10.4 °F - 6.8 °F 85% 30.16 in 10.0 mi Calm Calm - N/A   Scattered Clouds
12:35 AM 6.8 °F -0.1 °F 5.0 °F 92% 30.16 in 10.0 mi East 3.5 mph - N/A   Scattered Clouds
12:55 AM 8.6 °F - 6.8 °F 92% 30.15 in 10.0 mi Calm Calm - N/A   Scattered Clouds
1:15 AM 6.8 °F - 3.2 °F 85% 30.15 in 10.0 mi Calm Calm - N/A   Clear
1:35 AM 6.8 °F - 5.0 °F 92% 30.15 in 10.0 mi Calm Calm - N/A   Clear
1:55 AM 5.0 °F - 3.2 °F 92% 30.15 in 10.0 mi Calm Calm - N/A   Clear
2:15 AM 5.0 °F -2.1 °F 3.2 °F 92% 30.14 in 10.0 mi ESE 3.5 mph - N/A   Clear
2:35 AM 5.0 °F - 3.2 °F 92% 30.13 in 10.0 mi Calm Calm - N/A   Clear
2:55 AM 5.0 °F - 3.2 °F 92% 30.13 in 10.0 mi Calm Calm - N/A   Clear
3:15 AM 5.0 °F - 3.2 °F 92% 30.13 in 10.0 mi Calm Calm - N/A   Clear
3:35 AM 3.2 °F - -0.4 °F 85% 30.12 in 10.0 mi Calm Calm - N/A   Clear
3:55 AM 3.2 °F - -0.4 °F 85% 30.13 in 10.0 mi Calm Calm - N/A   Clear
4:15 AM 1.4 °F - -0.4 °F 92% 30.12 in 10.0 mi Calm Calm - N/A   Clear
4:35 AM 1.4 °F - -2.2 °F 85% 30.12 in 10.0 mi Calm Calm - N/A   Clear
4:55 AM -0.4 °F - -4.0 °F 85% 30.12 in 10.0 mi Calm Calm - N/A   Clear
5:15 AM -0.4 °F - -4.0 °F 85% 30.12 in 10.0 mi Calm Calm - N/A   Clear
5:35 AM -0.4 °F -10.4 °F -4.0 °F 85% 30.12 in 10.0 mi East 4.6 mph - N/A   Clear
5:55 AM 1.4 °F -6.2 °F -0.4 °F 92% 30.12 in 10.0 mi ESE 3.5 mph - N/A   Clear
6:15 AM 3.2 °F - -0.4 °F 85% 30.13 in 10.0 mi Calm Calm - N/A   Clear
6:35 AM 5.0 °F -2.1 °F 1.4 °F 85% 30.13 in 10.0 mi East 3.5 mph - N/A   Clear
6:55 AM 5.0 °F - 1.4 °F 85% 30.12 in 10.0 mi Calm Calm - N/A   Scattered Clouds
7:15 AM 8.6 °F 2.0 °F 3.2 °F 79% 30.12 in 10.0 mi East 3.5 mph - N/A   Mostly Cloudy
7:35 AM 10.4 °F 2.2 °F 5.0 °F 79% 30.12 in 10.0 mi ESE 4.6 mph - N/A   Overcast
7:55 AM 12.2 °F 2.9 °F 5.0 °F 73% 30.12 in 10.0 mi ESE 5.8 mph - N/A   Overcast
8:15 AM 14.0 °F 6.5 °F 3.2 °F 62% 30.12 in 10.0 mi ESE 4.6 mph - N/A   Overcast
8:35 AM 14.0 °F 8.2 °F 5.0 °F 67% 30.12 in 10.0 mi ESE 3.5 mph - N/A   Overcast
9:15 AM 17.6 °F 10.7 °F 6.8 °F 63% 30.11 in 10.0 mi ESE 4.6 mph - N/A   Overcast
9:35 AM 19.4 °F 9.5 °F 8.6 °F 63% 30.12 in 10.0 mi ESE 8.1 mph - N/A   Overcast
9:55 AM 21.2 °F 11.7 °F 8.6 °F 58% 30.11 in 10.0 mi SE 8.1 mph - N/A   Overcast
10:15 AM 21.2 °F 11.7 °F 8.6 °F 58% 30.11 in 10.0 mi SE 8.1 mph - N/A   Overcast
10:35 AM 21.2 °F 12.6 °F 8.6 °F 58% 30.11 in 10.0 mi SE 6.9 mph - N/A   Overcast
10:55 AM 23.0 °F 14.7 °F 8.6 °F 54% 30.11 in 10.0 mi ESE 6.9 mph - N/A   Scattered Clouds
11:15 AM 23.0 °F 14.7 °F 8.6 °F 54% 30.10 in 10.0 mi ESE 6.9 mph - N/A   Scattered Clouds
11:35 AM 26.6 °F 19.1 °F 6.8 °F 43% 30.10 in 10.0 mi SE 6.9 mph - N/A   Clear
11:55 AM 26.6 °F 17.5 °F 3.2 °F 37% 30.10 in 10.0 mi SE 9.2 mph - N/A   Clear
12:15 PM 26.6 °F 17.5 °F 1.4 °F 34% 30.09 in 10.0 mi ESE 9.2 mph - N/A   Clear
12:35 PM 28.4 °F 20.4 °F 1.4 °F 31% 30.07 in 10.0 mi ESE 8.1 mph - N/A   Clear
12:55 PM 28.4 °F 21.2 °F 1.4 °F 31% 30.07 in 10.0 mi ESE 6.9 mph - N/A   Scattered Clouds
1:15 PM 28.4 °F 21.2 °F -0.4 °F 29% 30.06 in 10.0 mi ESE 6.9 mph - N/A   Clear
1:35 PM 28.4 °F 21.2 °F -0.4 °F 29% 30.05 in 10.0 mi ESE 6.9 mph - N/A   Mostly Cloudy
1:55 PM 28.4 °F 19.7 °F -0.4 °F 29% 30.04 in 10.0 mi ESE 9.2 mph - N/A   Overcast
2:15 PM 30.2 °F 22.6 °F 1.4 °F 29% 30.04 in 10.0 mi ESE 8.1 mph - N/A   Overcast
2:35 PM 30.2 °F 22.6 °F 1.4 °F 29% 30.03 in 10.0 mi ESE 8.1 mph - N/A   Overcast
2:55 PM 30.2 °F 23.4 °F -0.4 °F 27% 30.03 in 10.0 mi ESE 6.9 mph - N/A   Mostly Cloudy
3:15 PM 30.2 °F 23.4 °F -0.4 °F 27% 30.03 in 10.0 mi ESE 6.9 mph - N/A   Mostly Cloudy
3:55 PM 28.4 °F 22.2 °F -0.4 °F 29% 30.03 in 10.0 mi ESE 5.8 mph - N/A   Mostly Cloudy
4:15 PM 28.4 °F 21.2 °F 1.4 °F 31% 30.02 in 10.0 mi ESE 6.9 mph - N/A   Overcast
4:35 PM 28.4 °F 21.2 °F 3.2 °F 34% 30.02 in 10.0 mi ESE 6.9 mph - N/A   Overcast
4:55 PM 28.4 °F 22.2 °F 5.0 °F 37% 30.02 in 10.0 mi East 5.8 mph - N/A   Mostly Cloudy
5:15 PM 28.4 °F 23.3 °F 5.0 °F 37% 30.02 in 10.0 mi ESE 4.6 mph - N/A   Scattered Clouds
5:55 PM 26.6 °F 20.0 °F 5.0 °F 40% 30.02 in 10.0 mi East 5.8 mph - N/A   Clear
6:15 PM 24.8 °F 17.9 °F 3.2 °F 40% 30.02 in 10.0 mi East 5.8 mph - N/A   Clear
6:35 PM 23.0 °F 15.8 °F 3.2 °F 43% 30.02 in 10.0 mi East 5.8 mph - N/A   Clear
6:55 PM 23.0 °F 17.0 °F 3.2 °F 43% 30.02 in 10.0 mi East 4.6 mph - N/A   Clear
7:15 PM 23.0 °F 14.7 °F 1.4 °F 39% 30.03 in 10.0 mi East 6.9 mph - N/A   Clear
7:35 PM 23.0 °F 14.7 °F 1.4 °F 39% 30.03 in 10.0 mi East 6.9 mph - N/A   Clear
7:55 PM 21.2 °F 12.6 °F 1.4 °F 42% 30.02 in 10.0 mi East 6.9 mph - N/A   Clear
8:15 PM 23.0 °F 13.9 °F 3.2 °F 43% 30.02 in 10.0 mi East 8.1 mph - N/A   Clear
8:35 PM 21.2 °F 12.6 °F 5.0 °F 50% 30.02 in 10.0 mi East 6.9 mph - N/A   Clear
8:55 PM 21.2 °F 16.4 °F 5.0 °F 50% 30.02 in 10.0 mi ESE 3.5 mph - N/A   Clear
9:15 PM 21.2 °F 13.6 °F 5.0 °F 50% 30.02 in 10.0 mi ESE 5.8 mph - N/A   Clear
9:35 PM 21.2 °F 14.9 °F 3.2 °F 46% 30.01 in 10.0 mi ESE 4.6 mph - N/A   Clear
9:55 PM 21.2 °F 14.9 °F 3.2 °F 46% 30.01 in 10.0 mi East 4.6 mph - N/A   Clear
10:15 PM 21.2 °F 13.6 °F 3.2 °F 46% 30.01 in 10.0 mi East 5.8 mph - N/A   Clear
10:35 PM 21.2 °F 13.6 °F 3.2 °F 46% 30.01 in 10.0 mi East 5.8 mph - N/A   Clear
10:55 PM 21.2 °F 12.6 °F 1.4 °F 42% 30.01 in 10.0 mi East 6.9 mph - N/A   Clear
11:15 PM 19.4 °F 11.5 °F 1.4 °F 46% 30.01 in 10.0 mi East 5.8 mph - N/A   Clear
11:35 PM 21.2 °F 12.6 °F 1.4 °F 42% 30.01 in 10.0 mi East 6.9 mph - N/A   Clear
11:55 PM 21.2 °F 11.7 °F 1.4 °F 42% 30.01 in 10.0 mi East 8.1 mph - N/A   Scattered Clouds